Погода в Штанашах

Россия / Чувашская Республика     55°41′41″N   46°26′43″E
темп.,
°C
ветер,
м/с
пор.,
м/с
влажн.,
%
обл.,
%
осадки,
мм/ч
давл.,
гПа
погр.,
м
20 июня, вс
вс2000:00+17з48895 0.0 1022120
03:00+15з34905 0.0 102252
06:00+19з36845 0.0 1022153
09:00+23зсз44745 0.0 1022439
12:00+26зсз44655 0.0 1022918
15:00+27зсз44620 0.0 10221168
18:00+25з35764 0.0 1021291
21:00+21зюз33901 0.0 102139
21 июня, пн
пн2100:00+19зюз22900 0.0 102119
03:00+18юз23910 0.0 102226
06:00+20юз23840 0.0 1022117
09:00+24зюз34700 0.0 1022455
12:00+27з34630 0.0 1022957
15:00+28з34620 0.0 10221179
18:00+26зюз35766 0.1 1021251
21:00+22зюз338878 0.3 102142
22 июня, вт
вт2200:00+20з23895 0.0 102227
03:00+19з229063 0.0 102221
06:00+22з238599 0.0 1023112
09:00+26з227320 0.0 1023453
12:00+28з33625 0.2 10231131
15:00+29з335965 0.2 10221362
18:00+27з24730 0.0 1021211
21:00+22зюз23825 0.0 102120
23 июня, ср
ср2300:00+20зюз22880 0.0 102215
03:00+19зюз22885 0.0 102215
06:00+22зюз24835 0.0 1022137
09:00+26з33675 0.0 1021463
12:00+28зсз34624 0.0 10211017
15:00+29з33595 0.0 10201042
18:00+26зюз357898 1.8 1020123
21:00+23зюз348927 1.8 102063
24 июня, чт
чт2400:00+22з358793 0.0 101974
03:00+20сз33890 0.0 102034
06:00+23зсз35845 0.0 1020161
09:00+27сз46696 0.0 1019431
12:00+30зсз445911 0.0 1019907
15:00+30з446098 0.0 1018822
18:00+27зюз4980100 0.3 1017292
21:00+24з411876 0.3 1017202